DW8397 Weather Reports


Display with metric or nautical units.
time (UTC)temp
F
wind
direction
speed
MPH
gust
MPH
rain 1hr
in
rain 24hr
in
rain mn
in
humidity
%
barometer
mb
20260507014503 44 312 5.0 9.0 0.00 0.55 0.55 93 1006.6
20260507013000 44 296 0.0 7.0 0.01 0.55 0.55 92 1006.4
20260507011558 44 290 4.0 8.0 0.01 0.55 0.55 92 1006.3
20260507010108 45 344 0.0 0.0 0.01 0.55 0.55 92 1006.2
20260507004554 45 344 0.0 0.0 0.01 0.55 0.55 92 1006.1
20260507003053 46 344 0.0 0.0 0.00 0.54 0.54 92 1005.5
20260507001553 46 331 0.0 5.0 0.00 0.54 0.54 92 1005.4
20260507000048 47 290 3.0 8.0 0.00 0.54 0.54 92 1005.2
20260506234545 48 324 0.0 0.0 0.00 0.54 0.54 92 1004.7
20260506233042 49 247 0.0 0.0 0.00 0.54 0.54 92 1004.2
20260506231540 49 317 0.0 0.0 0.00 0.54 0.54 92 1003.7
20260506230039 50 338 0.0 6.0 0.00 0.54 0.54 92 1003.6
20260506224538 52 355 2.0 11.0 0.00 0.54 0.54 91 1003.4
20260506223037 54 293 1.0 9.0 0.00 0.54 0.54 92 1003.1
20260506221535 55 348 0.0 4.0 0.00 0.54 0.54 93 1002.9
20260506220038 55 312 0.0 3.0 0.00 0.54 0.54 93 1002.7
20260506214534 55 250 0.0 4.0 0.00 0.56 0.54 93 1002.6
20260506213034 55 212 1.0 7.0 0.02 0.56 0.54 93 1002.6
20260506211533 56 296 0.0 0.0 0.05 0.56 0.54 93 1002.6
20260506210033 56 296 0.0 0.0 0.06 0.56 0.54 93 1002.6
20260506204533 56 242 0.0 5.0 0.07 0.66 0.54 93 1002.7
20260506203033 56 215 0.0 4.0 0.06 0.64 0.52 93 1002.5
20260506201542 56 155 0.0 4.0 0.04 0.61 0.49 93 1002.6
20260506200031 56 173 0.0 4.0 0.03 0.60 0.48 93 1002.6
20260506194534 56 161 0.0 0.0 0.04 0.59 0.47 93 1002.7
20260506193027 56 114 0.0 6.0 0.06 0.57 0.46 93 1002.9
20260506191526 56 182 0.0 5.0 0.07 0.56 0.45 93 1003.0
20260506190026 56 152 0.0 9.0 0.09 0.56 0.45 93 1003.1
20260506184523 56 182 0.0 4.0 0.09 0.55 0.43 93 1003.3
20260506183022 56 182 4.0 7.0 0.09 0.52 0.40 93 1003.5
20260506181520 56 190 0.0 7.0 0.11 0.50 0.38 93 1003.5
20260506180020 56 161 0.0 5.0 0.13 0.48 0.36 93 1003.7
20260506174518 56 175 3.0 7.0 0.15 0.46 0.34 93 1003.8
20260506173018 56 158 3.0 9.0 0.17 0.43 0.31 93 1004.2
20260506171516 56 186 5.0 10.0 0.17 0.39 0.27 93 1004.5
20260506170016 56 186 3.0 9.0 0.15 0.35 0.23 93 1004.6
20260506164513 57 155 1.0 6.0 0.12 0.30 0.18 92 1004.5
20260506163024 57 158 0.0 4.0 0.09 0.26 0.14 92 1004.3
20260506161511 57 106 0.0 0.0 0.06 0.22 0.10 92 1004.5
20260506160014 57 163 0.0 0.0 0.06 0.20 0.08 92 1004.7
20260506154507 57 166 0.0 0.0 0.06 0.18 0.06 91 1005.0
20260506153006 57 166 0.0 0.0 0.05 0.17 0.05 91 1005.0
20260506151507 57 167 0.0 0.0 0.03 0.15 0.03 90 1005.5
20260506150006 57 197 0.0 0.0 0.02 0.14 0.02 90 1005.6
20260506144503 57 198 0.0 0.0 0.00 0.12 0.00 90 1005.9
20260506143013 57 198 0.0 0.0 0.00 0.12 0.00 90 1005.8
20260506141502 57 198 0.0 0.0 0.00 0.12 0.00 90 1005.6
20260506140003 56 198 0.0 0.0 0.00 0.12 0.00 91 1005.6
20260506134601 56 198 0.0 0.0 0.00 0.12 0.00 91 1005.5
20260506133002 54 198 0.0 0.0 0.00 0.12 0.00 92 1005.4
20260506131600 54 198 0.0 0.0 0.00 0.12 0.00 92 1005.7
20260506130107 53 198 0.0 0.0 0.00 0.12 0.00 92 1006.0
20260506124601 53 198 0.0 0.0 0.00 0.12 0.00 92 1006.4
20260506123058 52 198 0.0 3.0 0.00 0.12 0.00 93 1006.3
20260506121604 52 213 0.0 0.0 0.00 0.12 0.00 93 1006.0
20260506120109 52 185 0.0 0.0 0.00 0.12 0.00 93 1006.0
20260506114608 51 185 0.0 0.0 0.00 0.12 0.00 93 1006.0
20260506113052 51 185 0.0 0.0 0.00 0.12 0.00 93 1006.1
20260506111553 51 185 0.0 0.0 0.00 0.12 0.00 93 1006.1
20260506110050 50 203 0.0 0.0 0.00 0.12 0.00 93 1005.6
20260506104550 50 220 0.0 0.0 0.00 0.12 0.00 93 1005.7
20260506103047 50 220 0.0 0.0 0.00 0.12 0.00 93 1005.8
20260506101544 51 220 0.0 0.0 0.00 0.12 0.00 93 1005.7
20260506100041 52 221 0.0 0.0 0.00 0.12 0.00 93 1005.7
20260506094544 52 221 0.0 0.0 0.00 0.12 0.00 93 1005.6
20260506093100 52 221 0.0 0.0 0.00 0.12 0.00 93 1005.8
20260506091535 53 221 0.0 0.0 0.00 0.12 0.00 93 1005.7
20260506090038 53 221 0.0 0.0 0.00 0.12 0.00 93 1005.8
20260506084531 54 221 0.0 0.0 0.00 0.12 0.00 92 1006.0
20260506083029 54 221 0.0 0.0 0.00 0.12 0.00 92 1006.3
20260506081526 54 221 0.0 0.0 0.00 0.12 0.00 92 1006.3
20260506073021 56 221 0.0 0.0 0.00 0.12 0.00 91 1006.4
20260506071519 56 221 0.0 0.0 0.00 0.12 0.00 91 1006.3
20260506061511 58 221 0.0 0.0 0.00 0.12 0.00 87 1006.4
20260506044502 59 220 0.0 0.0 0.00 0.12 0.00 83 1006.9
20260506043002 59 220 0.0 0.0 0.00 0.12 0.00 83 1006.7
20260506041610 59 220 0.0 0.0 0.00 0.12 0.00 83 1006.8
20260506040101 59 152 0.0 0.0 0.00 0.12 0.00 84 1006.8
20260506034602 59 153 0.0 0.0 0.00 0.12 0.12 84 1006.8
20260506033057 59 153 0.0 0.0 0.00 0.12 0.12 84 1006.8
20260506031600 59 157 0.0 0.0 0.00 0.12 0.12 84 1006.7
20260506030056 59 138 0.0 0.0 0.00 0.12 0.12 84 1006.6
20260506024603 59 144 0.0 0.0 0.00 0.12 0.12 84 1006.6
20260506023057 59 340 0.0 0.0 0.00 0.12 0.12 84 1006.7
20260506021554 59 344 0.0 0.0 0.00 0.12 0.12 84 1006.5
20260506020118 59 344 0.0 0.0 0.00 0.12 0.12 84 1006.5